Location: Heilbronn
(49.1548°N, 9.2780°E)
Time: 04:43:25
(UTC+01:00)

ISS - Pass Details

Date: 11 November 2017
Orbit: 402 x 407 km, 51.6° (Epoch: 23 November)

Event Time Altitude Azimuth Distance (km) Brightness Sun altitude
Exits shadow 06:42:19 10° 287° (WNW) 1,451 -1.7 -7.5°
Maximum altitude 06:45:32 66° 205° (SSW) 445 -3.7 -7.0°
Drops below altitude 10° 06:48:46 10° 123° (ESE) 1,453 0.6 -6.5°
Sets 06:50:51 0° 120° (ESE) 2,310 2.2 -6.2°
